Location: Alexandria
(38.8050°N, 77.0470°W)
Time: 03:23:54
(UTC-05:00)

Tiangong 2 - Pass Details

Date: 14 November 2017
Orbit: 386 x 392 km, 42.8° (Epoch: 20 November)

Event Time Altitude Azimuth Distance (km) Brightness Sun altitude
Rises 17:56:09 0° 281° (W) 2,273 6.3 -12.1°
Reaches altitude 10° 17:58:38 10° 262° (W) 1,414 5.4 -12.6°
Maximum altitude 18:00:56 19° 215° (SW) 1,012 3.8 -13.0°
Drops below altitude 10° 18:03:14 10° 169° (SSE) 1,406 3.9 -13.4°
Sets 18:05:41 0° 150° (SSE) 2,254 4.8 -13.9°
